SBI250 UWWW-UWSG

Flight info

Callsign SBI250
Flight time 0h 42m
Altitude 36000
Route NIDOG7H NIDOG T790 RORNA T789 OGRER OGRER1G
Aircraft A319/M-SDE3FGHIRWY/LB1

Departure

Time 2026-04-26 11:57
Airport Kurumoch International Airport (UWWW)

Arrival

Time 2026-04-26 12:40
Airport Gagarin International Airport (UWSG)
Time Latitude Longitude Altitude Speed Heading
2026-04-26 11:28 53.51159 50.15873 447 ft 0 kts 332°
2026-04-26 11:34 53.51158 50.15873 447 ft 0 kts 332°
2026-04-26 11:36 53.51158 50.15874 447 ft 0 kts 332°
2026-04-26 11:51 53.51146 50.15885 447 ft 3 kts 332°
2026-04-26 11:52 53.51129 50.15900 447 ft 3 kts 341°
2026-04-26 11:52 53.51112 50.15910 447 ft 3 kts 341°
2026-04-26 11:52 53.51093 50.15917 447 ft 3 kts 18°
2026-04-26 11:52 53.51078 50.15903 447 ft 0 kts 58°
2026-04-26 11:54 53.51078 50.15902 447 ft 0 kts 58°
2026-04-26 11:54 53.51079 50.15908 447 ft 2 kts 62°
2026-04-26 11:55 53.51089 50.15943 447 ft 5 kts 63°
2026-04-26 11:55 53.51112 50.16015 447 ft 9 kts 62°
2026-04-26 11:55 53.51146 50.16122 447 ft 12 kts 62°
2026-04-26 11:55 53.51192 50.16265 447 ft 15 kts 61°
2026-04-26 11:56 53.51249 50.16437 447 ft 18 kts 61°
2026-04-26 11:56 53.51314 50.16643 447 ft 21 kts 62°
2026-04-26 11:56 53.51389 50.16877 447 ft 24 kts 62°
2026-04-26 11:56 53.51429 50.17100 449 ft 13 kts 130°
2026-04-26 11:57 53.51336 50.17159 450 ft 36 kts 160°
2026-04-26 11:57 53.50800 50.17475 438 ft 124 kts 161°
2026-04-26 11:57 53.49812 50.18068 727 ft 163 kts 165°
2026-04-26 11:57 53.48730 50.18716 1578 ft 164 kts 166°
2026-04-26 11:58 53.47636 50.19367 2240 ft 174 kts 167°
2026-04-26 11:58 53.46416 50.20080 2627 ft 197 kts 167°
2026-04-26 11:58 53.45091 50.20856 3409 ft 203 kts 167°
2026-04-26 11:58 53.43772 50.21644 4308 ft 205 kts 166°
2026-04-26 11:59 53.42406 50.22489 5258 ft 210 kts 162°
2026-04-26 11:59 53.41290 50.24136 6036 ft 232 kts 124°
2026-04-26 11:59 53.40934 50.26906 6553 ft 264 kts 88°
2026-04-26 11:59 53.41328 50.30076 7050 ft 290 kts 74°
2026-04-26 12:00 53.42022 50.33308 7878 ft 299 kts 68°
2026-04-26 12:00 53.42876 50.36521 8781 ft 304 kts 58°
2026-04-26 12:00 53.44190 50.39303 9709 ft 305 kts 40°
2026-04-26 12:00 53.45857 50.41502 10440 ft 312 kts 27°
2026-04-26 12:01 53.47806 50.43386 10781 ft 335 kts 25°
2026-04-26 12:01 53.49895 50.45395 11068 ft 357 kts 26°
2026-04-26 12:01 53.52089 50.47524 11652 ft 368 kts 26°
2026-04-26 12:01 53.54361 50.49580 12378 ft 371 kts 18°
2026-04-26 12:02 53.56850 50.50609 13114 ft 369 kts
2026-04-26 12:02 53.59389 50.50324 13867 ft 365 kts 342°
2026-04-26 12:02 53.61729 50.48799 14530 ft 360 kts 325°
2026-04-26 12:02 53.63657 50.46264 15204 ft 355 kts 309°
2026-04-26 12:03 53.65166 50.43004 15915 ft 354 kts 302°
2026-04-26 12:03 53.66508 50.39514 16609 ft 354 kts 292°
2026-04-26 12:03 53.67271 50.35599 17295 ft 353 kts 278°
2026-04-26 12:03 53.67373 50.31469 18003 ft 354 kts 264°
2026-04-26 12:04 53.66806 50.27419 18594 ft 358 kts 249°
2026-04-26 12:04 53.65578 50.23747 19199 ft 364 kts 234°
2026-04-26 12:04 53.63890 50.20520 19809 ft 368 kts 231°
2026-04-26 12:04 53.62162 50.17320 20401 ft 370 kts 231°
2026-04-26 12:05 53.60422 50.14105 20980 ft 373 kts 231°
2026-04-26 12:05 53.58669 50.10867 21548 ft 375 kts 231°
2026-04-26 12:05 53.56908 50.07613 22110 ft 377 kts 231°
2026-04-26 12:05 53.55133 50.04338 22646 ft 380 kts 231°
2026-04-26 12:06 53.53347 50.01040 23184 ft 382 kts 231°
2026-04-26 12:06 53.51552 49.97727 23662 ft 385 kts 231°
2026-04-26 12:06 53.49742 49.94390 24069 ft 388 kts 231°
2026-04-26 12:06 53.47917 49.91032 24465 ft 390 kts 231°
2026-04-26 12:07 53.46080 49.87657 24871 ft 393 kts 231°
2026-04-26 12:07 53.44230 49.84267 25270 ft 396 kts 231°
2026-04-26 12:07 53.42386 49.80896 25664 ft 398 kts 231°
2026-04-26 12:07 53.40483 49.77421 26050 ft 401 kts 231°
2026-04-26 12:08 53.38611 49.73936 26431 ft 403 kts 234°
2026-04-26 12:08 53.37039 49.70074 26814 ft 401 kts 243°
2026-04-26 12:08 53.35886 49.65824 27188 ft 401 kts 252°
2026-04-26 12:08 53.35155 49.61316 27555 ft 403 kts 258°
2026-04-26 12:09 53.34514 49.56736 27917 ft 405 kts 258°
2026-04-26 12:09 53.33874 49.52198 28265 ft 407 kts 258°
2026-04-26 12:09 53.33215 49.47566 28610 ft 410 kts 257°
2026-04-26 12:09 53.32549 49.42921 28945 ft 412 kts 257°
2026-04-26 12:10 53.31875 49.38243 29279 ft 414 kts 257°
2026-04-26 12:10 53.31196 49.33543 29611 ft 416 kts 257°
2026-04-26 12:10 53.30514 49.28838 30062 ft 415 kts 257°
2026-04-26 12:10 53.29832 49.24145 30471 ft 414 kts 257°
2026-04-26 12:11 53.29152 49.19471 30807 ft 415 kts 257°
2026-04-26 12:11 53.27762 49.09965 30896 ft 428 kts 257°
2026-04-26 12:12 53.26329 49.00267 30894 ft 432 kts 256°
2026-04-26 12:12 53.24334 48.90779 30890 ft 433 kts 252°
2026-04-26 12:13 53.22282 48.81328 30889 ft 433 kts 252°
2026-04-26 12:13 53.20238 48.71957 30881 ft 433 kts 251°
2026-04-26 12:14 53.18166 48.62535 30875 ft 433 kts 251°
2026-04-26 12:14 53.16088 48.53104 30875 ft 433 kts 251°
2026-04-26 12:15 53.14013 48.43703 30873 ft 432 kts 251°
2026-04-26 12:15 53.11922 48.34305 30870 ft 432 kts 251°
2026-04-26 12:16 53.09807 48.24942 30866 ft 432 kts 250°
2026-04-26 12:16 53.07592 48.15661 30863 ft 432 kts 250°
2026-04-26 12:17 53.05335 48.06409 30858 ft 431 kts 250°
2026-04-26 12:17 53.03105 47.97235 30857 ft 431 kts 250°
2026-04-26 12:18 53.00867 47.88006 30853 ft 431 kts 250°
2026-04-26 12:18 52.98627 47.78778 30852 ft 431 kts 249°
2026-04-26 12:19 52.96373 47.69563 30851 ft 431 kts 249°
2026-04-26 12:19 52.94108 47.60359 30849 ft 430 kts 249°
2026-04-26 12:20 52.91848 47.51180 30844 ft 430 kts 249°
2026-04-26 12:20 52.89612 47.42122 30842 ft 418 kts 249°
2026-04-26 12:21 52.87451 47.33392 30844 ft 406 kts 249°
2026-04-26 12:21 52.85300 47.24778 30846 ft 404 kts 249°
2026-04-26 12:21 52.84216 47.20476 30638 ft 405 kts 247°
2026-04-26 12:22 52.82873 47.16380 30386 ft 407 kts 239°
2026-04-26 12:22 52.81163 47.12643 30142 ft 410 kts 231°
2026-04-26 12:22 52.79110 47.09343 29889 ft 414 kts 224°
2026-04-26 12:22 52.76759 47.06567 29604 ft 418 kts 216°
2026-04-26 12:23 52.74189 47.04264 29314 ft 421 kts 212°
2026-04-26 12:23 52.71596 47.02010 29029 ft 422 kts 213°
2026-04-26 12:23 52.69002 46.99750 28744 ft 422 kts 212°
2026-04-26 12:23 52.66432 46.97513 28469 ft 422 kts 212°
2026-04-26 12:24 52.63832 46.95256 28139 ft 422 kts 212°
2026-04-26 12:24 52.61235 46.93004 27023 ft 424 kts 212°
2026-04-26 12:24 52.58614 46.90729 25870 ft 427 kts 212°
2026-04-26 12:25 52.53402 46.86233 24257 ft 417 kts 212°
2026-04-26 12:25 52.50848 46.84042 23518 ft 412 kts 212°
2026-04-26 12:25 52.48321 46.81871 22723 ft 407 kts 212°
2026-04-26 12:25 52.45823 46.79732 22054 ft 400 kts 212°
2026-04-26 12:26 52.43373 46.77638 21394 ft 395 kts 212°
2026-04-26 12:26 52.40953 46.75566 20756 ft 389 kts 212°
2026-04-26 12:26 52.38572 46.73524 20143 ft 384 kts 212°
2026-04-26 12:26 52.36216 46.71507 19562 ft 380 kts 211°
2026-04-26 12:27 52.33878 46.69512 18983 ft 377 kts 211°
2026-04-26 12:27 52.31562 46.67540 18443 ft 374 kts 211°
2026-04-26 12:27 52.29260 46.65581 17888 ft 372 kts 211°
2026-04-26 12:27 52.27003 46.63662 17339 ft 368 kts 211°
2026-04-26 12:28 52.24712 46.61712 16333 ft 376 kts 210°
2026-04-26 12:28 52.22371 46.59716 15294 ft 380 kts 210°
2026-04-26 12:28 52.20035 46.57731 14306 ft 376 kts 210°
2026-04-26 12:28 52.17720 46.55772 13288 ft 373 kts 209°
2026-04-26 12:29 52.16195 46.54486 12569 ft 370 kts 209°
2026-04-26 12:29 52.13927 46.52575 11519 ft 364 kts 209°
2026-04-26 12:29 52.09506 46.48850 9493 ft 351 kts 209°
2026-04-26 12:30 52.06714 46.46512 8856 ft 323 kts 209°
2026-04-26 12:30 52.04796 46.44909 8718 ft 296 kts 209°
2026-04-26 12:30 52.03592 46.43899 8628 ft 281 kts 209°
2026-04-26 12:31 52.00002 46.42459 8360 ft 267 kts 181°
2026-04-26 12:31 51.98162 46.42925 8221 ft 269 kts 171°
2026-04-26 12:31 51.96330 46.43597 7910 ft 272 kts 171°
2026-04-26 12:31 51.94520 46.44254 7458 ft 269 kts 171°
2026-04-26 12:32 51.92705 46.44907 6938 ft 266 kts 172°
2026-04-26 12:32 51.90908 46.45552 6451 ft 263 kts 172°
2026-04-26 12:32 51.87372 46.46815 5452 ft 257 kts 172°
2026-04-26 12:33 51.85639 46.47439 4972 ft 253 kts 172°
2026-04-26 12:33 51.83931 46.48054 4496 ft 249 kts 172°
2026-04-26 12:33 51.82252 46.48655 4019 ft 246 kts 172°
2026-04-26 12:33 51.80571 46.48964 3575 ft 240 kts 184°
2026-04-26 12:34 51.78979 46.48662 3479 ft 220 kts 195°
2026-04-26 12:34 51.77595 46.47928 3425 ft 200 kts 204°
2026-04-26 12:34 51.76351 46.47103 3348 ft 188 kts 204°
2026-04-26 12:34 51.75142 46.46308 3302 ft 187 kts 204°
2026-04-26 12:35 51.73944 46.45522 3267 ft 183 kts 203°
2026-04-26 12:35 51.72794 46.44763 3239 ft 173 kts 204°
2026-04-26 12:35 51.71734 46.44035 3160 ft 161 kts 208°
2026-04-26 12:35 51.70945 46.42798 3097 ft 161 kts 236°
2026-04-26 12:36 51.70675 46.41026 2874 ft 169 kts 264°
2026-04-26 12:36 51.70730 46.39134 2591 ft 168 kts 266°
2026-04-26 12:36 51.70777 46.37248 2342 ft 167 kts 265°
2026-04-26 12:36 51.70824 46.35509 2117 ft 145 kts 265°
2026-04-26 12:37 51.70863 46.33972 1921 ft 131 kts 264°
2026-04-26 12:37 51.70897 46.32529 1757 ft 127 kts 263°
2026-04-26 12:37 51.70930 46.31127 1584 ft 127 kts 263°
2026-04-26 12:37 51.70964 46.29700 1424 ft 128 kts 265°
2026-04-26 12:38 51.70999 46.28263 1247 ft 126 kts 264°
2026-04-26 12:38 51.71032 46.26865 1065 ft 127 kts 265°
2026-04-26 12:38 51.71067 46.25423 891 ft 129 kts 263°
2026-04-26 12:38 51.71101 46.23963 718 ft 132 kts 264°
2026-04-26 12:39 51.71136 46.22471 547 ft 134 kts 266°
2026-04-26 12:39 51.71172 46.20977 362 ft 133 kts 266°
2026-04-26 12:39 51.71208 46.19497 187 ft 132 kts 267°
2026-04-26 12:39 51.71233 46.18152 108 ft 77 kts 274°
2026-04-26 12:40 51.71251 46.17583 109 ft 29 kts 273°
2026-04-26 12:40 51.71282 46.17413 112 ft 7 kts 332°
2026-04-26 12:40 51.71335 46.17411 111 ft 8 kts
2026-04-26 12:40 51.71348 46.17413 111 ft 2 kts
2026-04-26 12:41 51.71365 46.17414 111 ft 3 kts
2026-04-26 12:41 51.71399 46.17415 111 ft 7 kts
2026-04-26 12:41 51.71464 46.17419 111 ft 11 kts
2026-04-26 12:41 51.71557 46.17426 110 ft 15 kts
2026-04-26 12:42 51.71626 46.17340 111 ft 15 kts 269°
2026-04-26 12:42 51.71630 46.17188 111 ft 13 kts 271°
2026-04-26 12:42 51.71643 46.17044 110 ft 10 kts 328°
2026-04-26 12:42 51.71701 46.17036 111 ft 1 kts 359°